カタログに戻る

COSMOS 2491 DEB *

運用中PO
NORAD 45128·DEBRIS·🇷🇺 Russia

打ち上げ Dec 25, 2013 から Plesetsk Cosmodrome

Loading…

次のパス (今後24時間)

TLE

最新Source: Space-Track

元期: Sep 14, 2026, 07:51 UTC

1 45128U 13076AA  26257.32743412  .00004180  00000-0  12291-2 0  9995
2 45128  81.2031 266.9837 0021409 339.4723  20.5604 14.43490929 74907

AllMySatでCOSMOS 2491 DEB *をリアルタイム追跡

Download on the App Store